Home   Weather   Stockerau   Past weeks

Flag for Austria Past Weather in Stockerau, Lower Austria, Austria — Yesterday and Last 2 Weeks

Now
86 °F

Scattered clouds.


Feels Like: 87 °F
Forecast: 66 / 82 °F
Wind: 8 mph from Southwest

Location: Tulln Airport

Current Time: Jul 22, 2017 at 3:01:22 pm

Latest Report: Jul 22, 2017 at 1:50 pm


Visibility: 25 mi

Pressure: 29.92 "Hg

Humidity: 46%

Dew Point: 63 °F

Location of StockerauLocation

Past Weather in Stockerau — Graph

°F

Stockerau Temperature Yesterday

Maximum temperature yesterday: 84 °F (at 4:50 pm)
Minimum temperature yesterday: 64 °F (at 5:50 am)
Average temperature yesterday: 76 °F

High & Low Weather Summary for the Past Weeks

 TemperatureHumidityPressure
High93 °F (Jul 20, 1:50 pm)100% (Jul 16, 5:50 am)30.27 "Hg (Jul 16, 5:50 am)
Low48 °F (Jul 14, 5:50 am)24% (Jul 13, 4:50 pm)29.77 "Hg (Jul 10, 3:20 pm)
Average75 °F57%29.98 "Hg
* Reported Jul 7 1:20 pm — Jul 22 1:50 pm, Stockerau. Weather by CustomWeather, © 2017

Note: Actual official high and low records may vary slightly from our data, if they occured in-between our weather recording intervals... More about our weather records

Advertising

Stockerau Weather History for the Previous 24 Hours

Scroll right to see more
 ConditionsComfort  
Time TempWeatherWind HumidityBarometerVisibility
1:50 pm
Sat, Jul 22
86 °FScattered clouds.8 mph46%29.92 "Hg25 mi
12:50 pm82 °FScattered clouds.10 mph51%29.95 "Hg25 mi
11:50 am82 °FScattered clouds.9 mph51%29.95 "Hg25 mi
10:50 am79 °FBroken clouds.13 mph58%29.95 "Hg25 mi
9:50 am79 °FBroken clouds.13 mph58%29.95 "Hg25 mi
8:50 am75 °FBroken clouds.13 mph65%29.95 "Hg25 mi
7:50 am75 °FPartly sunny.5 mph61%29.92 "Hg25 mi
5:50 am73 °FPartly sunny.9 mph57%29.89 "Hg16 mi
10:50 pm
Fri, Jul 21
73 °FPassing clouds.6 mph65%29.92 "Hg16 mi
9:50 pm75 °FPassing clouds.9 mph61%29.92 "Hg16 mi
8:50 pm77 °FPassing clouds.6 mph61%29.92 "Hg25 mi
7:50 pm81 °FScattered clouds.5 mph54%29.89 "Hg37 mi
6:50 pm84 °FPassing clouds.6 mph45%29.92 "Hg37 mi
5:50 pm84 °FPassing clouds.6 mph43%29.92 "Hg37 mi
4:50 pm84 °FPassing clouds.5 mph43%29.92 "Hg37 mi
3:50 pm82 °FPassing clouds.3 mph48%29.95 "Hg37 mi
Weather by CustomWeather, © 2017

See weather overviewHow to use our weather pages